{"data":{"norad_id":53763,"intl_designator":"2022-109D","name":"YAOGAN-35 05C","alt_names":[],"object_type":"PAYLOAD","status":"ACTIVE","operator":null,"country":"PRC","launch_date":"2022-09-06","launch_site_code":"XICLF","launch_vehicle":null,"mission":null,"orbit_class":"UNKNOWN","rcs_meters":null,"size_class":null,"mass_kg":null,"dimensions":null,"purposes":[],"wikipedia_slug":null,"has_3d_model":false,"image_url":null,"decayed_at":null,"tle_current":{"epoch":"2026-09-20T22:27:27.567072Z","epoch_age_seconds":112157,"freshness":"FRESH","line1":"1 53763U 22109D   26263.93573573  .00004753  00000+0  18914-3 0  9993","line2":"2 53763  34.9903 113.7665 0002560  20.2271 339.8545 15.24657939224994","mean_motion":15.24657939,"eccentricity":0.000256,"inclination_deg":34.9903,"raan_deg":113.7665,"arg_perigee_deg":20.2271,"mean_anomaly_deg":339.8545,"bstar":0.00018914,"rev_number":22499,"period_min":94.447414279984,"perigee_km":490.0540620263,"apogee_km":493.57147630811,"semimajor_km":6869.9497691672,"source":"CELESTRAK","updated_at":"2026-09-21T09:00:09.189040Z"}}}